Location: Quedlinburg
(51.7921°N, 11.1414°E)
Time: 08:47:51
(UTC+02:00)

SO-50 - Pass Details

Date: 10 March 2026
Orbit: 567 x 673 km, 64.6° (Epoch: 13 April)

Event Time Altitude Azimuth Distance (km) Brightness Sun altitude
Exits shadow 05:23:09 15° 231° (SW) 1,778 ? -12.9°
Drops below altitude 10° 05:24:50 10° 211° (SSW) 2,080 ? -12.6°
Sets 05:27:52 0° 190° (S) 2,971 ? -12.2°
